CW9454 Weather Reports


Display with metric or nautical units.
time (UTC)temp
F
wind
direction
speed
MPH
gust
MPH
rain 1hr
in
rain 24hr
in
rain mn
in
humidity
%
barometer
mb
20260901052013 77 344 0.0 0.0 0.00 0.00 0.00 91 1017.6
20260901051026 77 344 0.0 0.0 0.00 0.00 0.00 91 1017.7
20260901050031 77 344 0.0 0.0 0.00 0.00 0.00 91 1018.1
20260901045025 77 344 0.0 0.0 0.00 0.00 0.00 90 1018.3
20260901044019 77 344 0.0 0.0 0.00 0.00 0.00 90 1018.0
20260901043052 77 344 0.0 0.0 0.00 0.00 0.00 90 1018.2
20260901042041 77 344 0.0 0.0 0.00 0.00 0.00 90 1018.2
20260901041014 77 344 0.0 0.0 0.00 0.00 0.00 90 1018.1
20260901040019 77 343 0.0 0.0 0.00 0.00 0.00 89 1018.2
20260901035014 77 344 0.0 0.0 0.00 0.00 0.00 89 1018.3
20260901034029 77 343 0.0 0.0 0.00 0.00 0.00 89 1018.2
20260901033043 77 344 0.0 0.0 0.00 0.00 0.00 89 1018.1
20260901032015 77 344 0.0 0.0 0.00 0.00 0.00 88 1018.2
20260901031032 77 344 0.0 0.0 0.00 0.00 0.00 88 1018.1
20260901030019 77 344 0.0 0.0 0.00 0.00 0.00 88 1018.3
20260901025015 77 344 0.0 0.0 0.00 0.00 0.00 88 1018.6
20260901024030 77 344 0.0 0.0 0.00 0.00 0.00 87 1018.5
20260901023024 77 344 0.0 0.0 0.00 0.00 0.00 87 1018.2
20260901022038 78 344 0.0 0.0 0.00 0.00 0.00 87 1018.1
20260901021013 78 344 0.0 0.0 0.00 0.00 0.00 86 1018.2
20260901020020 78 344 0.0 0.0 0.00 0.00 0.00 86 1018.1
20260901015013 78 344 0.0 0.0 0.00 0.00 0.00 86 1018.0
20260901014027 78 344 0.0 0.0 0.00 0.00 0.00 86 1018.0
20260901013013 78 344 0.0 0.0 0.00 0.00 0.00 86 1018.2
20260901012055 79 344 0.0 0.0 0.00 0.00 0.00 86 1017.9
20260901011029 79 344 0.0 0.0 0.00 0.00 0.00 85 1018.0
20260901010035 79 344 0.0 0.0 0.00 0.00 0.00 85 1018.0
20260901005030 79 344 0.0 0.0 0.00 0.02 0.00 84 1018.0
20260901004015 79 344 0.0 0.0 0.00 0.02 0.00 84 1017.9
20260901003028 79 343 0.0 0.0 0.00 0.02 0.00 84 1018.0
20260901002039 80 344 0.0 0.0 0.00 0.02 0.00 84 1017.9
20260901001014 80 344 0.0 0.0 0.00 0.02 0.00 83 1017.7
20260901000050 80 344 0.0 0.0 0.00 0.02 0.00 83 1017.8
20260831235043 80 344 0.0 0.0 0.00 0.02 0.00 83 1017.6
20260831234036 80 344 0.0 0.0 0.00 0.02 0.00 82 1017.7
20260831233028 81 344 0.0 0.0 0.00 0.02 0.00 82 1018.0
20260831232023 81 344 0.0 0.0 0.00 0.02 0.00 82 1018.1
20260831231018 81 344 0.0 0.0 0.00 0.02 0.00 81 1018.3
20260831230026 81 344 0.0 0.0 0.00 0.02 0.00 81 1018.3
20260831225040 82 344 0.0 0.0 0.00 0.02 0.00 80 1018.3
20260831224013 82 344 0.0 0.0 0.00 0.02 0.00 80 1018.4
20260831223027 82 344 0.0 0.0 0.00 0.02 0.00 79 1018.5
20260831222041 83 344 0.0 0.0 0.00 0.02 0.00 78 1018.5
20260831221035 83 344 0.0 0.0 0.00 0.02 0.00 77 1018.7
20260831220023 84 344 0.0 0.0 0.00 0.02 0.00 77 1018.8
20260831215037 84 344 0.0 0.0 0.00 0.02 0.00 76 1018.6
20260831214029 84 343 0.0 0.0 0.00 0.02 0.00 75 1018.6
20260831213015 85 344 0.0 0.0 0.00 0.02 0.00 75 1018.5
20260831212040 85 343 0.0 0.0 0.00 0.02 0.00 74 1018.4
20260831211024 84 344 0.0 0.0 0.00 0.02 0.00 75 1018.4
20260831210027 84 344 0.0 0.0 0.00 0.02 0.00 76 1018.3
20260831205051 84 344 0.0 0.0 0.00 0.02 0.00 75 1018.5
20260831204014 84 344 0.0 0.0 0.00 0.02 0.00 76 1018.6
20260831203028 84 343 0.0 0.0 0.00 0.02 0.00 75 1018.7
20260831202022 84 343 0.0 0.0 0.00 0.02 0.00 76 1018.6
20260831201016 84 344 0.0 0.0 0.00 0.02 0.00 75 1018.6
20260831200023 84 343 0.0 0.0 0.00 0.02 0.00 76 1018.6
20260831195017 84 344 0.0 0.0 0.00 0.02 0.00 75 1018.6
20260831194032 84 343 0.0 0.0 0.00 0.02 0.00 75 1018.7
20260831193026 84 343 0.0 0.0 0.00 0.02 0.00 75 1018.8
20260831192041 84 343 0.0 0.0 0.00 0.02 0.00 75 1019.1
20260831191025 84 343 0.0 0.0 0.00 0.02 0.00 75 1019.2
20260831190038 84 343 0.0 0.0 0.00 0.02 0.00 76 1019.4
20260831185051 83 343 0.0 0.0 0.00 0.02 0.00 75 1019.5
20260831184025 83 343 0.0 0.0 0.00 0.02 0.00 76 1019.5
20260831183035 84 343 0.0 0.0 0.00 0.02 0.00 75 1019.6
20260831182048 84 343 0.0 0.0 0.00 0.02 0.00 75 1019.4
20260831181019 84 343 0.0 1.0 0.00 0.02 0.00 75 1019.3
20260831180026 84 342 0.0 0.0 0.00 0.02 0.00 75 1019.5
20260831175020 84 328 0.0 1.0 0.00 0.02 0.00 74 1019.6
20260831174033 85 27 0.0 1.0 0.00 0.02 0.00 74 1019.7
20260831173026 84 24 0.0 1.0 0.00 0.02 0.00 75 1019.8
20260831172036 85 24 0.0 1.0 0.00 0.02 0.00 73 1019.9
20260831171031 85 21 0.0 0.0 0.00 0.02 0.00 73 1020.0
20260831170036 85 21 0.0 1.0 0.00 0.02 0.00 75 1020.1
20260831165052 84 145 0.0 0.0 0.00 0.02 0.00 73 1020.1
20260831164026 84 146 0.0 0.0 0.00 0.02 0.00 72 1020.1
20260831163040 84 146 0.0 0.0 0.00 0.02 0.00 73 1020.1
20260831162036 84 162 0.0 5.0 0.00 0.02 0.00 74 1020.2
20260831161019 85 111 0.0 3.0 0.00 0.02 0.00 74 1020.2
20260831160035 84 111 0.0 2.0 0.00 0.02 0.00 75 1020.1
20260831155019 84 86 0.0 0.0 0.00 0.02 0.00 77 1020.3
20260831154032 83 86 0.0 2.0 0.00 0.02 0.00 77 1020.3
20260831153046 82 121 0.0 4.0 0.00 0.02 0.00 78 1020.1
20260831152018 81 71 0.0 0.0 0.00 0.02 0.00 81 1020.2
20260831151031 81 71 0.0 1.0 0.00 0.02 0.00 79 1020.3
20260831150018 81 69 0.0 0.0 0.00 0.02 0.00 81 1020.3
20260831145032 80 69 0.0 1.0 0.00 0.02 0.00 82 1020.2
20260831144025 80 69 0.0 2.0 0.00 0.02 0.00 84 1020.3
20260831143019 79 70 0.0 2.0 0.00 0.02 0.00 87 1020.3
20260831142032 78 36 0.0 2.0 0.00 0.02 0.00 87 1020.4
20260831141025 77 344 0.0 0.0 0.00 0.02 0.00 89 1020.3
20260831140054 77 303 0.0 0.0 0.00 0.02 0.00 90 1020.2
20260831135025 77 302 0.0 0.0 0.00 0.02 0.00 90 1020.2
20260831134040 77 302 0.0 0.0 0.00 0.02 0.00 92 1020.4
20260831133028 77 302 0.0 4.0 0.00 0.02 0.00 93 1020.4
20260831132021 76 275 0.0 0.0 0.00 0.02 0.00 93 1020.2
20260831131016 76 275 0.0 1.0 0.00 0.02 0.00 94 1020.2
20260831130022 76 289 0.0 0.0 0.00 0.02 0.00 94 1020.0
20260831125018 76 289 0.0 0.0 0.00 0.02 0.00 95 1019.9
20260831124052 76 289 0.0 0.0 0.00 0.02 0.00 95 1020.0
20260831123025 75 289 0.0 0.0 0.00 0.02 0.00 95 1020.1
20260831122019 75 289 0.0 0.0 0.00 0.02 0.00 95 1019.9
20260831121033 75 289 0.0 0.0 0.00 0.02 0.00 95 1019.8
20260831120020 75 289 0.0 0.0 0.00 0.02 0.00 95 1019.8
20260831115035 75 289 0.0 1.0 0.00 0.02 0.00 95 1019.7
20260831114020 75 154 0.0 0.0 0.00 0.02 0.00 94 1019.6
20260831113014 75 154 0.0 0.0 0.00 0.02 0.00 94 1019.6
20260831112029 75 154 0.0 0.0 0.00 0.02 0.00 94 1019.2
20260831111022 74 154 0.0 0.0 0.00 0.02 0.00 94 1019.2
20260831110100 74 154 0.0 0.0 0.00 0.02 0.00 94 1019.2
20260831105024 74 154 0.0 0.0 0.00 0.02 0.00 94 1019.0
20260831104020 73 153 0.0 0.0 0.00 0.02 0.00 93 1019.1
20260831103016 73 153 0.0 0.0 0.00 0.02 0.00 93 1019.0
20260831102049 73 153 0.0 0.0 0.00 0.02 0.00 93 1018.8
20260831101022 73 153 0.0 0.0 0.00 0.02 0.00 93 1018.8
20260831100058 73 153 0.0 0.0 0.00 0.02 0.00 93 1018.7
20260831095021 73 153 0.0 0.0 0.00 0.02 0.00 93 1018.6
20260831094059 73 153 0.0 0.0 0.00 0.02 0.00 93 1018.6
20260831093032 73 153 0.0 0.0 0.00 0.02 0.00 93 1018.5
20260831092016 73 153 0.0 0.0 0.00 0.02 0.00 93 1018.4
20260831091031 73 153 0.0 0.0 0.00 0.02 0.00 92 1018.4
20260831090046 73 153 0.0 0.0 0.00 0.02 0.00 92 1018.5
20260831085039 73 153 0.0 0.0 0.00 0.02 0.00 92 1018.5
20260831084024 73 153 0.0 0.0 0.00 0.02 0.00 92 1018.5
20260831083018 73 153 0.0 0.0 0.00 0.02 0.00 92 1018.4
20260831082031 73 153 0.0 0.0 0.00 0.02 0.00 92 1018.5
20260831081045 73 153 0.0 0.0 0.00 0.02 0.00 92 1018.5
20260831080040 73 153 0.0 0.0 0.00 0.02 0.00 92 1018.5
20260831075053 73 153 0.0 0.0 0.00 0.02 0.00 92 1018.6
20260831074027 73 153 0.0 0.0 0.00 0.02 0.00 92 1018.6
20260831073040 73 153 0.0 0.0 0.00 0.02 0.00 91 1018.6
20260831072055 73 153 0.0 0.0 0.00 0.02 0.00 91 1018.7
20260831071018 73 153 0.0 0.0 0.00 0.02 0.00 91 1018.7
20260831070035 74 153 0.0 0.0 0.00 0.02 0.00 91 1018.7
20260831065021 74 153 0.0 0.0 0.00 0.02 0.00 91 1018.6
20260831064016 74 153 0.0 0.0 0.00 0.02 0.00 91 1018.8
20260831063028 74 153 0.0 0.0 0.00 0.02 0.00 91 1018.8
20260831062020 74 153 0.0 0.0 0.00 0.02 0.00 91 1018.8
20260831061052 74 153 0.0 0.0 0.00 0.02 0.00 91 1018.9
20260831060018 74 153 0.0 0.0 0.00 0.02 0.00 91 1019.0
20260831055033 74 153 0.0 0.0 0.00 0.02 0.00 91 1019.1
20260831054027 74 153 0.0 0.0 0.00 0.02 0.00 90 1019.1
20260831053040 75 153 0.0 0.0 0.00 0.02 0.00 90 1019.0